GFSNGP_925_spd_150.txt.gz
Wind_Speed
4 1 2 8 11 10 7 5 4 4 8 17 17 13 6 16 18 15 11 12 14 13 12 20 22 21 23 25 25 24 20 17 16 14 12 10 10 9 9 9 8 9 10 11
10 15 14 12 17 16 13 14 16 16 18 17 21 12 9 16 15 9 8 8 9 12 16 21 23 22 26 25 26 24 20 19 17 17 14 12 12 13 12 11 11 11 12 12
7 3 3 4 15 15 12 12 6 8 16 11 9 8 8 9 7 7 3 6 8 11 14 19 22 27 27 28 27 24 22 21 20 17 16 15 15 14 13 13 12 12 13 14
3 2 5 3 1 8 8 6 6 6 5 9 7 6 3 4 5 5 3 3 7 10 16 20 24 27 28 30 27 24 24 23 21 20 19 17 16 16 15 13 12 12 12 11
3 5 6 7 5 6 7 5 5 4 9 5 2 3 6 5 5 2 1 4 7 18 22 25 26 27 28 24 22 21 23 24 24 23 22 21 19 17 14 12 10 10 11 11
3 3 5 13 3 3 3 5 4 5 9 4 3 1 5 3 3 2 1 4 13 22 22 23 24 29 29 26 24 22 23 24 24 23 22 21 19 16 12 9 9 8 9 10
5 4 7 5 7 4 4 10 3 3 4 6 5 6 1 2 2 2 2 8 14 19 20 22 27 30 26 25 23 23 24 23 22 20 20 19 18 16 13 10 9 9 9 9
3 2 7 6 4 7 6 2 3 4 5 6 6 3 4 3 2 3 4 9 11 14 16 20 26 27 24 23 23 24 24 22 21 20 19 21 20 17 12 10 10 11 11 11
8 7 5 4 3 2 2 2 4 5 6 8 6 6 6 4 5 5 8 9 12 15 17 17 21 25 23 23 25 25 23 22 20 20 18 19 22 19 14 10 10 12 11 11
2 5 8 6 5 4 5 6 7 7 7 5 5 5 7 7 7 7 10 11 14 16 16 16 19 18 20 25 26 26 22 21 19 19 18 17 19 19 15 12 12 12 10 10
5 6 4 9 8 7 7 7 8 5 3 4 4 5 6 7 7 9 12 14 15 14 14 15 17 17 21 26 27 22 20 18 16 17 18 17 17 17 12 8 7 13 12 10
7 7 6 5 5 7 7 8 8 4 2 2 6 6 6 6 9 12 13 15 14 15 16 16 18 20 23 25 26 23 18 18 19 20 18 17 17 13 10 12 11 9 8 7
9 6 8 3 5 6 9 9 8 5 6 6 5 8 7 4 11 14 15 16 16 17 17 20 21 22 24 25 26 24 20 21 21 21 20 21 21 23 21 13 8 6 8 8
3 3 8 6 6 6 7 8 4 3 6 7 10 10 9 8 10 13 15 17 18 18 19 21 22 22 25 25 25 24 23 23 23 23 23 23 21 20 21 21 17 12 10 8
9 10 14 3 5 7 4 5 6 6 5 5 10 9 11 9 10 13 14 17 18 19 19 20 20 22 23 25 25 25 23 23 23 23 23 21 20 21 20 18 15 13 11 12
9 10 8 9 10 7 7 6 7 6 6 5 6 10 12 11 11 14 16 18 18 15 19 21 21 22 24 26 25 24 22 21 23 24 22 21 21 22 20 19 17 14 16 16
7 9 6 6 9 8 10 8 9 8 7 7 8 12 13 13 12 13 15 19 20 20 21 22 22 21 23 25 24 25 23 21 22 23 23 23 23 22 21 21 21 17 16 15
13 15 9 7 7 6 5 7 7 9 7 12 12 15 13 12 8 14 18 19 18 17 20 22 22 23 23 23 23 23 24 23 22 22 22 21 21 21 21 20 19 18 15 14
9 11 9 8 7 6 6 8 8 13 16 16 15 13 15 17 20 21 21 20 18 16 17 17 20 21 23 22 22 20 21 23 22 21 21 21 20 20 20 19 18 18 16 15
4 4 6 5 9 9 7 11 16 15 17 19 16 16 15 18 21 22 22 18 19 17 20 21 23 22 22 22 20 20 21 22 23 21 21 20 20 18 17 16 17 18 17 17
2 4 7 8 6 11 14 18 17 13 17 18 20 18 19 20 21 22 17 10 15 13 20 23 22 19 19 20 19 20 21 22 22 21 21 20 19 17 15 17 17 17 18 18
3 5 6 7 7 8 14 16 16 17 17 16 15 16 18 17 19 18 15 15 17 17 20 23 21 19 20 20 20 20 20 20 20 20 20 19 18 17 17 18 18 18 17 18
4 5 8 8 7 9 14 14 15 17 17 17 19 21 21 21 22 15 5 12 16 18 19 22 22 20 19 20 19 18 19 19 20 19 19 18 16 17 19 20 19 18 17 18
7 8 7 9 14 11 7 9 12 12 12 15 18 20 21 17 15 15 10 14 15 17 18 20 21 20 21 21 20 20 19 19 19 19 17 17 16 15 17 18 18 17 17 17
7 8 9 9 5 4 11 14 13 11 10 10 11 15 17 15 14 18 15 14 16 17 18 17 18 20 21 21 21 19 19 19 19 18 15 15 15 15 16 17 17 17 17 18
5 4 8 9 9 12 13 14 9 12 13 10 9 12 14 13 12 9 16 15 16 17 18 17 18 20 21 22 21 19 19 20 19 16 14 14 14 14 15 15 16 16 17 16
5 8 8 7 9 12 15 14 12 10 14 14 12 12 13 13 12 11 14 16 17 17 17 19 19 20 20 21 20 18 18 19 18 15 13 13 13 13 14 14 14 16 17 17

GFSNGP_925_spd_153.txt.gz
Wind_Speed
4 2 3 5 12 9 6 8 6 8 10 19 17 3 10 17 15 17 17 8 13 15 14 20 23 25 25 24 23 22 23 22 19 17 14 11 10 8 7 6 7 7 8 8
11 15 13 13 17 16 19 19 18 16 20 19 18 13 12 16 15 16 15 12 9 12 16 22 25 26 26 26 25 29 27 24 20 17 16 13 11 10 9 8 9 9 9 8
6 6 4 8 17 18 11 10 11 13 20 15 13 10 11 13 11 13 9 5 6 12 16 20 24 26 26 27 30 29 27 23 20 16 18 16 15 12 11 11 11 12 12 12
6 2 8 5 1 9 11 11 11 14 14 12 12 7 6 8 10 6 5 5 5 9 15 19 22 23 24 27 28 28 26 23 20 19 18 18 16 16 15 13 12 11 10 10
6 8 8 14 7 6 7 12 14 13 12 10 2 4 9 2 4 4 2 3 5 10 17 22 25 26 29 27 28 27 26 24 22 21 21 19 19 18 15 13 12 11 10 8
4 4 5 11 5 4 5 12 6 7 8 5 1 4 4 3 2 2 4 3 4 13 17 20 22 27 26 25 27 27 27 24 23 23 22 22 20 18 15 13 12 10 10 9
11 9 8 3 5 6 7 5 3 1 2 2 3 3 1 1 2 3 3 2 6 11 14 17 23 25 22 25 25 27 25 24 24 22 23 23 21 17 16 13 11 11 10 10
5 6 11 6 5 6 4 3 3 1 2 4 7 5 3 4 2 1 0 4 6 9 11 16 22 23 21 21 27 26 25 26 24 24 21 20 21 18 15 13 12 11 9 8
9 8 3 6 4 4 5 5 3 3 7 7 5 3 2 4 4 4 5 5 6 9 11 12 15 20 21 22 24 23 23 22 21 21 19 20 20 19 13 11 9 9 8 8
3 7 9 9 6 7 8 7 5 5 6 5 4 3 3 2 4 5 7 8 8 11 12 12 14 19 20 24 22 22 22 22 21 21 19 19 15 15 12 11 10 9 8 7
6 0 4 8 11 9 9 6 8 5 6 6 6 5 6 5 6 7 8 8 10 11 13 14 16 17 21 23 24 23 22 22 20 18 18 18 14 15 12 10 9 11 9 9
7 7 10 6 6 9 11 11 11 8 5 5 9 6 8 7 9 10 10 11 12 12 14 16 16 18 20 22 23 23 22 20 19 19 18 16 16 13 10 10 11 10 10 8
7 6 7 3 7 8 11 11 9 9 10 7 6 9 11 7 13 13 11 14 15 16 16 17 17 19 21 24 24 24 20 20 19 18 17 17 17 17 17 13 11 10 9 9
4 5 2 6 7 12 11 11 10 9 7 7 8 12 12 12 12 15 15 16 15 16 16 17 18 19 22 24 22 23 21 22 19 18 17 17 17 17 18 18 15 13 12 10
9 13 11 3 7 9 7 6 9 8 6 7 11 14 15 11 11 14 13 16 16 16 16 17 18 19 23 23 22 22 18 18 18 17 16 17 17 17 16 16 15 14 13 11
9 10 11 12 12 11 10 10 10 8 7 6 8 11 13 12 12 14 15 17 18 16 17 19 19 23 26 24 23 20 18 20 21 18 18 17 16 17 16 16 15 15 14 13
6 8 10 10 11 12 14 12 11 8 8 10 10 12 13 13 14 13 14 15 17 19 21 23 23 23 25 27 23 19 17 19 21 18 18 18 18 18 16 16 15 14 13 14
13 11 10 10 8 7 7 9 8 9 8 12 14 15 14 14 10 14 15 17 17 17 18 20 22 24 25 26 22 19 18 18 19 18 18 18 17 17 16 16 15 14 12 14
6 11 9 11 10 7 5 7 8 13 17 18 15 13 14 14 16 16 19 19 17 15 16 20 22 24 24 25 23 20 18 18 17 17 17 18 18 16 16 16 15 14 14 15
7 7 7 6 8 7 6 9 15 14 17 18 14 12 11 14 18 20 20 15 14 10 18 20 22 24 22 23 24 18 17 18 17 16 17 17 17 16 15 15 14 13 14 15
4 2 2 5 5 8 13 18 18 13 16 18 15 14 14 17 19 20 14 10 12 12 17 20 21 20 20 21 21 18 16 17 17 16 16 16 15 14 14 13 14 14 14 15
2 4 5 5 7 8 14 15 16 17 15 14 13 16 18 14 17 15 12 10 15 16 19 20 21 20 20 20 16 15 16 16 16 15 15 15 15 14 14 14 14 14 15 15
5 5 7 7 7 11 12 12 15 18 15 16 17 19 17 16 16 14 7 12 16 19 19 21 22 21 19 20 19 18 18 18 18 18 17 17 16 15 14 14 14 15 16 16
7 8 8 9 11 11 8 7 13 12 13 13 15 19 19 14 10 10 8 15 17 19 19 20 22 21 21 20 20 19 18 18 18 17 17 17 17 16 14 14 16 16 16 16
5 7 7 7 5 4 9 11 13 11 11 10 11 14 14 13 10 16 15 15 17 18 17 18 21 22 22 21 21 20 19 19 18 18 18 17 16 15 15 15 16 16 16 17
5 3 6 8 7 10 11 12 9 10 11 10 8 11 12 13 12 11 17 16 18 19 18 19 21 23 23 22 22 21 20 18 18 18 18 17 14 15 15 15 15 16 16 16
3 3 4 5 6 10 12 12 11 11 11 14 11 13 14 15 14 14 17 18 18 19 19 19 20 22 22 21 21 21 20 18 18 18 19 16 15 15 14 14 14 15 15 16

GFSNGP_925_spd_156.txt.gz
Wind_Speed
9 9 10 9 12 11 12 11 8 8 12 16 16 11 15 15 13 14 13 9 7 11 12 20 24 26 26 24 21 20 20 18 17 15 12 11 10 10 9 9 9 9 8 6
12 12 14 17 19 17 19 19 19 16 22 16 19 11 13 15 14 16 15 14 11 9 13 19 23 24 25 24 24 23 21 19 20 17 14 12 10 9 10 8 9 10 8 7
9 7 7 12 19 21 19 17 14 17 20 15 11 11 14 11 11 12 12 10 8 7 9 16 21 22 24 24 24 24 24 24 25 21 16 15 12 11 12 11 9 11 10 9
9 7 11 13 4 8 12 13 15 16 15 14 13 10 7 9 12 12 8 5 3 4 8 12 16 20 22 24 24 25 26 27 26 20 16 14 14 13 13 11 10 11 9 8
10 12 15 18 14 8 9 14 15 16 16 14 10 7 11 3 3 2 2 1 3 4 7 13 18 21 22 23 25 25 27 27 26 23 20 17 16 15 14 12 10 10 8 7
11 14 14 19 1 4 5 14 7 8 11 10 4 9 4 4 2 2 2 3 4 2 7 12 16 20 25 25 25 25 27 27 26 23 20 19 17 15 14 12 11 9 8 7
15 16 12 16 8 7 9 1 3 3 3 3 5 4 3 1 1 1 1 1 3 8 12 16 18 19 20 22 23 26 30 28 24 22 20 19 17 15 14 12 11 10 9 8
15 13 17 6 11 13 8 5 6 7 7 6 6 2 4 5 5 4 3 3 5 7 8 15 18 20 18 19 23 30 31 27 23 22 20 19 18 16 13 12 12 11 10 9
9 12 2 13 9 14 8 8 10 10 8 6 4 3 2 2 3 3 3 4 5 7 9 10 13 15 18 18 27 28 23 22 22 22 20 19 18 16 14 12 12 12 11 10
10 14 9 12 14 9 12 12 9 9 8 6 6 5 5 4 5 5 6 6 7 8 9 10 12 13 16 22 26 25 22 21 22 22 21 19 17 16 13 13 12 11 11 10
17 12 4 12 14 16 14 11 11 10 9 8 8 6 8 8 8 8 11 9 8 10 10 11 12 14 17 22 24 22 22 22 22 20 20 20 16 16 13 11 10 11 11 10
11 11 14 15 12 16 14 15 16 13 10 10 13 10 8 7 9 11 10 10 12 11 11 12 14 16 19 21 23 23 22 21 21 21 20 19 17 14 10 10 12 11 11 9
16 14 13 8 9 8 10 11 12 14 13 12 12 10 9 7 11 11 10 11 11 12 13 15 16 17 19 22 22 22 20 20 20 20 20 19 18 17 15 11 10 10 9 10
18 13 11 11 7 9 10 12 13 14 13 12 11 11 11 11 14 15 13 12 11 13 14 16 17 18 19 20 20 21 19 21 20 19 19 19 18 17 16 17 16 14 11 10
17 18 15 10 6 8 10 12 14 12 11 10 11 10 12 11 12 13 12 11 13 15 15 16 17 18 20 21 21 21 19 19 18 17 17 18 17 17 17 16 15 16 14 11
17 13 12 12 12 13 14 14 15 13 11 7 8 11 14 14 12 12 12 14 18 17 18 18 18 20 24 23 21 19 17 19 18 18 18 18 17 18 17 16 16 16 15 14
12 11 12 12 15 15 16 15 14 13 12 11 10 13 14 14 13 13 13 14 14 15 18 20 19 24 26 26 21 18 17 18 18 18 18 18 18 17 17 17 16 16 15 15
13 14 14 12 10 10 11 12 11 11 11 13 14 15 14 13 11 13 14 16 15 15 17 18 21 24 25 24 20 18 17 18 19 18 17 18 17 16 16 16 16 15 14 13
11 13 13 12 12 12 10 10 9 11 12 17 17 14 16 15 15 14 16 15 15 15 15 18 21 21 20 21 20 17 17 18 18 17 17 17 16 16 16 16 16 15 15 15
8 9 9 10 11 9 6 6 13 12 15 17 16 15 12 13 15 15 15 15 15 14 19 19 21 20 20 22 23 18 18 19 18 17 18 17 17 17 16 16 16 16 16 16
5 4 1 2 3 4 8 13 15 13 16 17 16 14 14 14 15 16 15 11 12 13 18 21 20 19 19 20 23 17 18 19 18 18 18 18 17 17 16 16 16 16 16 15
2 3 3 3 5 6 9 13 14 16 15 14 12 14 15 15 14 14 11 9 15 17 17 18 18 20 19 21 19 16 17 17 18 17 17 17 17 17 16 16 16 16 15 15
5 5 5 5 6 9 10 10 12 15 14 14 15 16 16 16 16 14 9 10 14 19 17 16 18 22 22 20 17 15 15 16 16 16 16 16 16 17 16 16 15 15 15 15
5 6 7 8 9 10 9 8 9 10 12 11 11 15 17 15 12 11 8 17 17 21 16 16 20 22 20 17 14 14 15 15 15 15 15 15 15 15 15 15 15 14 15 15
7 8 8 7 5 4 8 10 10 10 12 10 11 12 11 11 10 14 12 14 17 18 14 16 19 22 19 15 15 15 15 16 16 16 15 15 15 15 15 14 14 14 15 15
6 4 5 6 5 7 9 11 9 11 11 10 9 10 10 9 8 13 13 13 15 16 14 14 17 19 18 15 15 16 16 15 16 16 15 15 15 15 14 13 13 14 14 14
6 5 5 4 5 8 9 10 10 11 11 11 11 12 11 10 10 11 13 14 14 15 13 13 16 18 18 16 15 15 15 15 16 15 16 15 15 15 13 13 13 13 13 14

GFSNGP_925_spd_162.txt.gz
Wind_Speed
15 16 12 9 10 14 12 12 7 16 12 19 12 10 15 14 10 11 10 8 7 9 8 9 10 19 22 23 26 25 23 24 21 24 22 20 20 17 14 11 10 11 11 11
17 17 17 16 19 20 19 21 19 19 20 19 14 16 15 12 11 10 8 8 6 8 6 17 19 20 22 26 30 30 26 23 23 24 23 27 23 18 14 14 13 12 12 12
16 15 17 15 24 20 21 21 20 18 20 18 16 13 13 9 11 11 3 2 2 7 6 5 10 24 26 26 26 27 24 23 28 27 26 21 20 19 17 14 16 16 16 16
10 12 15 18 17 21 24 21 16 18 16 17 15 10 9 6 2 7 8 7 6 5 7 6 6 9 21 23 27 28 27 30 31 29 26 25 24 20 21 18 15 14 12 11
11 12 16 15 18 17 11 13 15 15 15 14 13 10 6 11 10 9 7 3 5 4 5 5 2 9 19 22 25 27 28 31 31 31 30 27 24 24 23 21 17 15 14 12
10 10 17 18 22 20 12 5 22 20 13 14 12 6 3 10 11 8 8 5 3 4 4 4 4 9 21 25 28 26 29 29 29 29 30 28 26 23 20 19 18 16 15 12
15 15 13 17 15 5 9 9 6 8 6 4 3 4 11 10 6 7 5 6 7 7 6 6 8 9 13 18 19 26 27 26 26 27 28 27 25 22 22 20 19 16 16 13
18 14 20 21 17 12 15 7 5 8 4 4 10 7 6 6 5 5 5 7 8 9 7 8 7 8 10 12 16 21 24 27 27 28 27 27 26 24 23 20 19 17 16 14
10 12 9 8 15 14 14 13 10 9 6 7 9 7 7 5 4 4 7 8 9 7 12 7 10 12 13 13 18 23 24 25 27 27 26 25 25 24 21 20 18 16 17 15
9 13 11 14 12 10 6 4 7 8 8 4 8 9 7 5 7 7 9 9 8 7 10 7 8 10 13 17 20 24 24 24 25 27 25 24 23 22 19 17 17 17 16 16
8 9 12 13 3 20 8 9 9 8 5 7 10 8 7 7 8 8 10 9 8 9 9 9 11 12 14 17 22 23 23 24 24 24 24 23 21 21 17 17 16 16 16 16
5 11 8 15 7 10 8 8 9 10 5 4 9 10 9 7 9 9 9 9 10 10 9 12 13 13 14 18 22 24 23 23 23 24 23 22 21 13 13 16 14 12 14 16
15 9 12 18 20 9 8 7 11 11 7 6 8 8 9 5 13 13 11 10 10 10 10 12 13 14 16 20 25 24 22 23 23 23 23 22 19 20 17 13 12 11 13 12
18 16 13 18 11 9 10 9 8 5 6 7 9 15 15 9 6 13 12 12 11 10 11 14 15 16 18 21 26 23 21 23 24 23 22 21 20 19 19 17 14 13 12 12
14 12 11 10 10 11 12 10 9 6 6 6 9 6 6 6 8 12 11 12 11 9 12 17 16 17 21 23 23 24 22 22 22 22 21 21 21 19 17 17 15 15 14 14
11 13 14 13 14 14 13 9 11 8 5 2 1 3 3 6 8 9 13 14 13 11 15 17 17 20 21 22 23 23 21 22 21 21 22 21 20 19 19 18 18 19 19 18
10 12 10 12 12 11 11 9 8 8 7 7 6 7 9 8 5 10 14 14 12 13 18 20 19 20 22 24 23 21 20 23 22 21 21 20 20 19 18 18 18 20 20 22
10 13 10 9 7 4 5 6 3 3 3 2 5 10 10 6 6 12 16 15 12 12 16 18 19 21 23 24 23 21 22 22 20 19 20 19 18 18 18 18 18 19 19 23
10 11 9 9 5 4 3 3 1 1 2 5 8 8 11 14 16 16 18 16 14 13 16 18 20 22 24 26 21 21 20 20 18 17 18 18 18 18 18 18 18 18 19 24
8 9 10 9 11 6 6 5 3 5 6 10 11 12 10 13 19 18 18 14 15 14 20 19 20 22 23 25 20 20 20 19 18 18 18 18 18 18 19 18 17 18 18 23
6 7 7 6 6 8 7 6 5 6 9 12 13 11 12 16 18 19 14 7 15 16 18 20 21 20 22 25 22 19 20 20 19 18 19 19 19 18 17 18 18 18 19 20
4 4 4 4 3 3 3 4 6 9 10 11 12 15 17 15 16 14 15 12 19 21 19 22 21 21 22 24 22 19 20 21 19 18 20 19 19 19 17 17 18 19 18 19
1 1 1 2 2 1 1 2 5 9 10 12 15 17 15 15 16 12 7 13 20 22 21 21 21 23 22 23 23 19 21 21 19 17 19 21 20 19 20 20 20 21 21 20
2 2 3 3 4 4 3 4 7 10 12 12 13 16 15 13 12 15 13 17 20 22 20 22 23 25 23 22 21 18 19 20 19 19 19 20 21 20 20 20 21 21 20 20
3 2 3 3 4 2 8 10 8 8 8 7 8 12 12 12 12 14 15 21 20 21 18 22 23 24 24 22 20 20 20 19 19 19 19 20 21 21 21 22 21 20 20 21
4 3 5 7 5 3 1 5 4 8 7 7 8 12 11 12 12 14 17 19 19 21 18 22 22 24 23 22 21 22 21 20 20 19 19 19 19 19 20 19 19 19 20 19
7 5 5 5 6 5 7 7 6 6 10 10 9 13 12 13 13 16 16 16 17 18 19 21 21 22 22 21 22 21 21 20 20 20 19 18 18 19 19 20 20 20 20 19

GFSNGP_925_spd_165.txt.gz
Wind_Speed
10 8 6 7 5 12 8 8 9 18 8 15 10 11 12 11 10 10 11 8 7 7 7 17 21 23 26 28 29 28 24 22 22 23 22 21 20 19 17 17 17 14 13 14
9 11 10 6 13 12 14 15 14 15 16 16 12 7 9 12 9 10 10 8 8 7 9 13 19 24 29 32 31 29 27 25 26 27 23 23 21 21 21 19 14 17 19 18
9 10 6 8 23 18 18 14 15 13 19 16 11 13 14 14 10 7 9 7 9 9 6 13 20 27 26 30 30 28 24 23 25 25 28 26 25 24 21 18 22 22 16 16
5 5 13 9 10 17 19 19 13 16 19 17 15 14 16 8 9 11 9 9 7 6 10 8 4 8 24 27 27 27 25 27 28 29 29 28 27 24 23 24 21 19 21 16
4 8 4 4 13 12 10 18 17 21 9 8 3 4 6 4 9 10 8 5 8 8 6 4 2 2 23 27 29 30 29 32 32 31 30 29 27 27 25 24 22 17 17 15
4 5 11 14 20 12 7 9 18 4 7 7 2 0 4 6 7 7 11 15 10 7 6 5 6 9 20 26 29 27 31 34 33 31 31 30 30 29 27 25 20 17 14 11
10 10 5 13 3 2 9 11 9 9 12 12 7 5 8 9 6 7 9 11 9 7 6 6 5 8 10 14 17 21 25 26 27 29 30 32 31 30 27 23 20 18 16 14
11 13 20 6 2 11 9 4 2 6 6 6 10 7 7 6 6 7 6 11 13 11 9 9 8 9 11 14 16 19 21 23 24 25 26 28 29 28 26 23 22 21 20 17
8 4 6 5 4 6 5 11 11 6 7 14 12 7 9 6 6 5 6 9 16 19 14 11 10 11 14 14 17 19 22 24 25 25 26 28 27 26 25 26 23 21 21 18
7 8 16 13 14 7 6 4 9 9 8 15 11 13 10 9 7 6 8 9 7 20 16 14 11 11 13 16 18 21 23 23 25 26 26 27 27 26 23 23 22 20 20 19
11 13 16 8 10 12 14 4 4 12 7 13 14 12 8 8 7 7 10 13 14 18 17 16 15 11 12 15 19 21 21 22 23 25 26 25 24 25 23 24 25 23 23 24
9 14 11 17 17 11 9 15 10 22 5 8 10 13 10 8 10 13 12 14 14 14 19 19 18 14 14 15 19 22 21 22 23 23 24 24 23 20 20 21 21 21 21 24
17 14 11 19 18 7 13 19 23 16 7 11 9 11 11 7 13 19 18 16 19 19 18 23 20 15 13 16 21 23 21 22 24 24 24 23 23 23 20 16 17 16 18 17
17 12 15 14 10 2 17 17 15 3 7 9 10 14 13 8 14 16 16 18 20 20 22 23 20 14 14 18 22 23 22 23 24 25 24 23 25 25 25 23 21 17 15 17
16 10 15 14 11 13 15 9 13 7 6 6 9 8 8 7 9 15 22 18 24 23 25 24 18 14 14 18 23 23 23 23 24 24 26 22 24 25 24 22 22 22 18 15
12 10 16 17 12 11 11 9 3 3 5 5 7 7 10 14 10 19 22 22 22 15 24 22 18 17 16 18 22 23 26 25 26 24 25 23 24 23 21 20 20 22 21 22
2 5 13 6 8 7 8 7 6 6 7 8 8 14 15 13 12 16 18 24 24 26 26 23 20 17 17 21 23 23 24 26 25 23 24 24 23 22 21 20 19 21 23 26
12 10 11 3 5 7 7 3 4 7 4 6 13 16 12 8 10 15 19 20 20 19 22 21 18 19 19 23 25 25 24 24 25 23 23 23 22 22 22 23 21 22 23 25
2 6 7 8 6 4 6 7 6 5 8 12 10 5 11 17 21 20 20 17 16 15 16 17 17 21 22 24 25 25 26 25 23 22 23 24 23 23 25 25 25 26 26 26
6 6 8 6 8 6 4 3 3 3 4 7 12 10 8 11 17 20 18 13 18 14 18 18 18 22 22 25 25 25 26 25 22 22 24 24 25 24 24 25 25 26 28 29
6 5 4 5 5 6 5 6 3 1 2 6 9 8 10 13 16 18 15 6 15 14 17 19 22 23 24 27 25 25 25 25 24 24 25 24 24 23 23 23 22 24 28 29
5 5 6 6 5 6 9 6 3 0 4 6 8 12 14 13 15 14 15 16 20 19 21 21 22 23 25 26 25 27 26 26 25 24 25 25 25 25 23 23 25 24 24 24
4 4 4 4 3 1 4 6 4 1 2 6 9 12 13 14 16 11 5 13 21 23 22 21 24 25 24 26 26 25 26 26 26 25 24 26 26 25 25 24 25 25 24 24
1 1 2 2 1 2 3 3 3 3 4 7 11 14 17 13 11 13 13 18 21 23 21 20 24 25 25 25 26 22 25 26 26 25 24 26 27 27 28 27 26 26 27 27
3 4 4 5 4 1 4 6 6 5 5 6 7 9 9 12 11 17 16 21 22 24 20 20 24 24 25 25 23 24 22 26 26 25 24 24 27 27 27 26 27 27 27 27
6 4 8 8 3 5 10 11 5 10 8 5 5 6 10 12 11 16 18 21 23 22 19 21 24 26 25 24 24 23 23 23 23 23 24 24 26 27 28 28 28 28 28 27
6 6 5 3 5 5 7 9 9 9 14 13 11 11 13 14 13 15 18 20 21 21 20 21 23 24 26 25 25 25 25 25 24 23 22 22 23 24 25 25 25 25 24 25